Time,TemperatureF,DewpointF,PressureIn,WindDirection,WindDirectionDegrees,WindSpeedMPH,WindSpeedGustMPH,Humidity,HourlyPrecipIn,Conditions,Clouds,dailyrainin,SolarRadiationWatts/m^2,SoftwareType,DateUTC
2013-03-24 00:03:00,27.0,18.0,-100.00,East,95,2.0,3.0,69,0.00,,,0.00,0.000000,,2013-03-24 04:03:00,
2013-03-24 00:13:00,27.0,18.0,-100.00,East,95,2.0,3.0,69,0.00,,,0.00,0.000000,,2013-03-24 04:13:00,
2013-03-24 00:43:00,27.0,19.0,-100.00,SSE,152,1.0,4.0,72,0.00,,,0.00,0.000000,,2013-03-24 04:43:00,
2013-03-24 00:53:00,27.0,19.0,-100.00,SSE,152,1.0,4.0,72,0.00,,,0.00,0.000000,,2013-03-24 04:53:00,
2013-03-24 01:03:00,27.0,19.0,-100.00,SSE,152,1.0,4.0,72,0.00,,,0.00,0.000000,,2013-03-24 05:03:00,
2013-03-24 01:13:00,27.0,19.0,-100.00,SSE,152,1.0,4.0,72,0.00,,,0.00,0.000000,,2013-03-24 05:13:00,
2013-03-24 01:43:00,25.0,19.0,-100.00,East,89,2.0,3.0,77,0.00,,,0.00,0.000000,,2013-03-24 05:43:00,
2013-03-24 01:52:00,25.0,19.0,-100.00,East,89,2.0,3.0,77,0.00,,,0.00,0.000000,,2013-03-24 05:52:00,
2013-03-24 02:02:00,25.0,19.0,-100.00,East,89,2.0,3.0,77,0.00,,,0.00,0.000000,,2013-03-24 06:02:00,
2013-03-24 02:12:00,25.0,19.0,-100.00,East,89,2.0,3.0,77,0.00,,,0.00,0.000000,,2013-03-24 06:12:00,
2013-03-24 02:42:00,26.0,20.0,-100.00,ESE,118,1.0,4.0,79,0.00,,,0.00,0.000000,,2013-03-24 06:42:00,
2013-03-24 02:52:00,26.0,20.0,-100.00,ESE,118,1.0,4.0,79,0.00,,,0.00,0.000000,,2013-03-24 06:52:00,
2013-03-24 03:02:00,26.0,20.0,-100.00,ESE,118,1.0,4.0,79,0.00,,,0.00,0.000000,,2013-03-24 07:02:00,
2013-03-24 03:12:00,26.0,20.0,-100.00,ESE,118,1.0,4.0,79,0.00,,,0.00,0.000000,,2013-03-24 07:12:00,
2013-03-24 03:42:00,28.0,21.0,-100.00,NE,51,1.0,4.0,75,0.00,,,0.00,0.000000,,2013-03-24 07:42:00,
2013-03-24 03:52:00,28.0,21.0,-100.00,NE,51,1.0,4.0,75,0.00,,,0.00,0.000000,,2013-03-24 07:52:00,
2013-03-24 04:03:00,28.0,21.0,-100.00,NE,51,1.0,4.0,75,0.00,,,0.00,0.000000,,2013-03-24 08:03:00,
2013-03-24 04:12:00,28.0,21.0,-100.00,NE,51,1.0,4.0,75,0.00,,,0.00,0.000000,,2013-03-24 08:12:00,
2013-03-24 04:42:00,28.0,22.0,-100.00,SW,228,1.0,2.0,77,0.00,,,0.00,0.000000,,2013-03-24 08:42:00,
2013-03-24 04:52:00,28.0,22.0,-100.00,SW,228,1.0,2.0,77,0.00,,,0.00,0.000000,,2013-03-24 08:52:00,
2013-03-24 05:02:00,28.0,22.0,-100.00,SW,228,1.0,2.0,77,0.00,,,0.00,0.000000,,2013-03-24 09:02:00,
2013-03-24 05:12:00,28.0,22.0,-100.00,SW,228,1.0,2.0,77,0.00,,,0.00,0.000000,,2013-03-24 09:12:00,
2013-03-24 05:43:00,29.0,21.0,-100.00,ENE,68,2.0,4.0,71,0.00,,,0.00,0.000000,,2013-03-24 09:43:00,
2013-03-24 05:53:00,29.0,21.0,-100.00,ENE,68,2.0,4.0,71,0.00,,,0.00,0.000000,,2013-03-24 09:53:00,
2013-03-24 06:03:00,29.0,21.0,-100.00,ENE,68,2.0,4.0,71,0.00,,,0.00,0.000000,,2013-03-24 10:03:00,
2013-03-24 06:12:00,29.0,21.0,-100.00,ENE,68,2.0,4.0,71,0.00,,,0.00,0.000000,,2013-03-24 10:12:00,
2013-03-24 06:42:00,31.0,18.0,-100.00,East,85,5.0,8.0,57,0.00,,,0.00,0.000000,,2013-03-24 10:42:00,
2013-03-24 06:53:00,31.0,18.0,-100.00,East,85,5.0,8.0,57,0.00,,,0.00,0.000000,,2013-03-24 10:53:00,
2013-03-24 07:03:00,31.0,18.0,-100.00,East,85,5.0,8.0,57,0.00,,,0.00,0.000000,,2013-03-24 11:03:00,
2013-03-24 07:12:00,31.0,18.0,-100.00,East,85,5.0,8.0,57,0.00,,,0.00,0.000000,,2013-03-24 11:12:00,
2013-03-24 07:42:00,31.0,18.0,-100.00,ENE,76,5.0,8.0,58,0.00,,,0.00,0.000000,,2013-03-24 11:42:00,
2013-03-24 07:52:00,31.0,18.0,-100.00,ENE,76,5.0,8.0,58,0.00,,,0.00,0.000000,,2013-03-24 11:52:00,
2013-03-24 08:03:00,31.0,18.0,-100.00,ENE,76,5.0,8.0,58,0.00,,,0.00,0.000000,,2013-03-24 12:03:00,
2013-03-24 08:12:00,31.0,18.0,-100.00,ENE,76,5.0,8.0,58,0.00,,,0.00,0.000000,,2013-03-24 12:12:00,
2013-03-24 08:42:00,32.0,18.0,-100.00,East,80,5.0,8.0,56,0.00,,,0.00,13.000000,,2013-03-24 12:42:00,
2013-03-24 08:52:00,32.0,18.0,-100.00,East,80,5.0,8.0,56,0.00,,,0.00,13.000000,,2013-03-24 12:52:00,
2013-03-24 09:02:00,32.0,18.0,-100.00,East,80,5.0,8.0,56,0.00,,,0.00,13.000000,,2013-03-24 13:02:00,
2013-03-24 09:13:00,32.0,18.0,-100.00,East,80,5.0,8.0,56,0.00,,,0.00,13.000000,,2013-03-24 13:13:00,
2013-03-24 09:43:00,33.0,19.0,-100.00,East,96,5.0,9.0,55,0.00,,,0.00,54.000000,,2013-03-24 13:43:00,
2013-03-24 09:52:00,33.0,19.0,-100.00,East,96,5.0,9.0,55,0.00,,,0.00,54.000000,,2013-03-24 13:52:00,
2013-03-24 10:02:00,33.0,19.0,-100.00,East,96,5.0,9.0,55,0.00,,,0.00,54.000000,,2013-03-24 14:02:00,
2013-03-24 10:12:00,33.0,19.0,-100.00,East,96,5.0,9.0,55,0.00,,,0.00,54.000000,,2013-03-24 14:12:00,
2013-03-24 10:43:00,35.0,19.0,-100.00,East,86,4.0,7.0,52,0.00,,,0.00,88.000000,,2013-03-24 14:43:00,
2013-03-24 10:53:00,35.0,19.0,-100.00,East,86,4.0,7.0,52,0.00,,,0.00,88.000000,,2013-03-24 14:53:00,
2013-03-24 11:02:00,35.0,19.0,-100.00,East,86,4.0,7.0,52,0.00,,,0.00,88.000000,,2013-03-24 15:02:00,
2013-03-24 11:12:00,35.0,19.0,-100.00,East,86,4.0,7.0,52,0.00,,,0.00,88.000000,,2013-03-24 15:12:00,
2013-03-24 11:43:00,37.0,20.0,-100.00,East,79,6.0,9.0,49,0.00,,,0.00,117.000000,,2013-03-24 15:43:00,
2013-03-24 11:53:00,37.0,20.0,-100.00,East,79,6.0,9.0,49,0.00,,,0.00,117.000000,,2013-03-24 15:53:00,
2013-03-24 12:03:00,37.0,20.0,-100.00,East,79,6.0,9.0,49,0.00,,,0.00,117.000000,,2013-03-24 16:03:00,
2013-03-24 12:13:00,37.0,20.0,-100.00,East,79,6.0,9.0,49,0.00,,,0.00,117.000000,,2013-03-24 16:13:00,
2013-03-24 12:43:00,41.0,23.0,-100.00,ENE,59,6.0,9.0,48,0.00,,,0.00,156.000000,,2013-03-24 16:43:00,
2013-03-24 12:53:00,41.0,23.0,-100.00,ENE,59,6.0,9.0,48,0.00,,,0.00,156.000000,,2013-03-24 16:53:00,
2013-03-24 13:03:00,41.0,23.0,-100.00,ENE,59,6.0,9.0,48,0.00,,,0.00,156.000000,,2013-03-24 17:03:00,
2013-03-24 13:12:00,41.0,23.0,-100.00,ENE,59,6.0,9.0,48,0.00,,,0.00,156.000000,,2013-03-24 17:12:00,
2013-03-24 13:43:00,44.0,25.0,-100.00,ENE,68,6.0,12.0,46,0.00,,,0.00,191.000000,,2013-03-24 17:43:00,
2013-03-24 13:53:00,44.0,25.0,-100.00,ENE,68,6.0,12.0,46,0.00,,,0.00,191.000000,,2013-03-24 17:53:00,
2013-03-24 14:03:00,44.0,25.0,-100.00,ENE,68,6.0,12.0,46,0.00,,,0.00,191.000000,,2013-03-24 18:03:00,
2013-03-24 14:12:00,44.0,25.0,-100.00,ENE,68,6.0,12.0,46,0.00,,,0.00,191.000000,,2013-03-24 18:12:00,
2013-03-24 14:43:00,40.0,32.0,-100.00,East,100,4.0,13.0,74,0.04,,,0.04,71.000000,,2013-03-24 18:43:00,
2013-03-24 14:52:00,40.0,32.0,-100.00,East,100,4.0,13.0,74,0.04,,,0.04,71.000000,,2013-03-24 18:52:00,
2013-03-24 15:03:00,40.0,32.0,-100.00,East,100,4.0,13.0,74,0.04,,,0.04,71.000000,,2013-03-24 19:03:00,
2013-03-24 15:12:00,40.0,32.0,-100.00,East,100,4.0,13.0,74,0.04,,,0.04,71.000000,,2013-03-24 19:12:00,
2013-03-24 15:43:00,38.0,34.0,-100.00,ENE,73,4.0,8.0,85,0.11,,,0.15,78.000000,,2013-03-24 19:43:00,
2013-03-24 15:53:00,38.0,34.0,-100.00,ENE,73,4.0,8.0,85,0.11,,,0.15,78.000000,,2013-03-24 19:53:00,
2013-03-24 16:03:00,38.0,34.0,-100.00,ENE,73,4.0,8.0,85,0.11,,,0.15,78.000000,,2013-03-24 20:03:00,
2013-03-24 16:12:00,38.0,34.0,-100.00,ENE,73,4.0,8.0,85,0.11,,,0.15,78.000000,,2013-03-24 20:12:00,
2013-03-24 16:43:00,38.0,35.0,-100.00,ENE,69,6.0,9.0,88,0.04,,,0.19,92.000000,,2013-03-24 20:43:00,
2013-03-24 16:53:00,38.0,35.0,-100.00,ENE,69,6.0,9.0,88,0.04,,,0.19,92.000000,,2013-03-24 20:53:00,
2013-03-24 17:03:00,38.0,35.0,-100.00,ENE,69,6.0,9.0,88,0.04,,,0.19,92.000000,,2013-03-24 21:03:00,
2013-03-24 17:12:00,38.0,35.0,-100.00,ENE,69,6.0,9.0,88,0.04,,,0.19,92.000000,,2013-03-24 21:12:00,
2013-03-24 17:43:00,37.0,34.0,-100.00,ENE,63,5.0,8.0,90,0.03,,,0.22,89.000000,,2013-03-24 21:43:00,
2013-03-24 17:53:00,37.0,34.0,-100.00,ENE,63,5.0,8.0,90,0.03,,,0.22,89.000000,,2013-03-24 21:53:00,
2013-03-24 18:03:00,37.0,34.0,-100.00,ENE,63,5.0,8.0,90,0.03,,,0.22,89.000000,,2013-03-24 22:03:00,
2013-03-24 18:13:00,37.0,34.0,-100.00,ENE,63,5.0,8.0,90,0.03,,,0.22,89.000000,,2013-03-24 22:13:00,
2013-03-24 18:43:00,38.0,36.0,-100.00,NE,55,4.0,10.0,92,0.02,,,0.24,63.000000,,2013-03-24 22:43:00,
2013-03-24 18:53:00,38.0,36.0,-100.00,NE,55,4.0,10.0,92,0.02,,,0.24,63.000000,,2013-03-24 22:53:00,
2013-03-24 19:03:00,38.0,36.0,-100.00,NE,55,4.0,10.0,92,0.02,,,0.24,63.000000,,2013-03-24 23:03:00,
2013-03-24 19:12:00,38.0,36.0,-100.00,NE,55,4.0,10.0,92,0.02,,,0.24,63.000000,,2013-03-24 23:12:00,
2013-03-24 19:43:00,37.0,35.0,-100.00,NE,56,4.0,8.0,93,0.00,,,0.24,27.000000,,2013-03-24 23:43:00,
2013-03-24 19:53:00,37.0,35.0,-100.00,NE,56,4.0,8.0,93,0.00,,,0.24,27.000000,,2013-03-24 23:53:00,
2013-03-24 20:02:00,37.0,35.0,-100.00,NE,56,4.0,8.0,93,0.00,,,0.24,27.000000,,2013-03-25 00:02:00,
2013-03-24 20:12:00,37.0,35.0,-100.00,NE,56,4.0,8.0,93,0.00,,,0.24,27.000000,,2013-03-25 00:12:00,
2013-03-24 20:43:00,37.0,35.0,-100.00,ENE,63,3.0,7.0,92,0.00,,,0.24,1.000000,,2013-03-25 00:43:00,
2013-03-24 20:53:00,37.0,35.0,-100.00,ENE,63,3.0,7.0,92,0.00,,,0.24,1.000000,,2013-03-25 00:53:00,
2013-03-24 21:02:00,37.0,35.0,-100.00,ENE,63,3.0,7.0,92,0.00,,,0.24,1.000000,,2013-03-25 01:02:00,
2013-03-24 21:12:00,37.0,35.0,-100.00,ENE,63,3.0,7.0,92,0.00,,,0.24,1.000000,,2013-03-25 01:12:00,
2013-03-24 21:42:00,36.0,34.0,-100.00,ENE,66,2.0,6.0,93,0.01,,,0.25,0.000000,,2013-03-25 01:42:00,
2013-03-24 21:53:00,36.0,34.0,-100.00,ENE,66,2.0,6.0,93,0.01,,,0.25,0.000000,,2013-03-25 01:53:00,
2013-03-24 22:02:00,36.0,34.0,-100.00,ENE,66,2.0,6.0,93,0.01,,,0.25,0.000000,,2013-03-25 02:02:00,
2013-03-24 22:12:00,36.0,34.0,-100.00,ENE,66,2.0,6.0,93,0.01,,,0.25,0.000000,,2013-03-25 02:12:00,
2013-03-24 22:43:00,36.0,34.0,-100.00,SSW,208,1.0,4.0,93,0.06,,,0.31,0.000000,,2013-03-25 02:43:00,
2013-03-24 22:52:00,36.0,34.0,-100.00,SSW,208,1.0,4.0,93,0.06,,,0.31,0.000000,,2013-03-25 02:52:00,
2013-03-24 23:03:00,36.0,34.0,-100.00,SSW,208,1.0,4.0,93,0.06,,,0.31,0.000000,,2013-03-25 03:03:00,
2013-03-24 23:13:00,36.0,34.0,-100.00,SSW,208,1.0,4.0,93,0.06,,,0.31,0.000000,,2013-03-25 03:13:00,
2013-03-24 23:43:00,35.0,34.0,-100.00,WSW,250,3.0,5.0,95,0.11,,,0.42,0.000000,,2013-03-25 03:43:00,
2013-03-24 23:53:00,35.0,34.0,-100.00,WSW,250,3.0,5.0,95,0.11,,,0.42,0.000000,,2013-03-25 03:53:00,